When you browse on this site, cookies collect data to enhance your experience and personalize the content and advertising you see.
Visit our Privacy Policy to learn more. By continuing to use the site, you agree to this use of cookies and data.
  • In Österreich
  • Länderverzeichnis
  • Für 7 Tage
  • Wassertemperatur
  • Satellitenkarten
  • Wetterkarte
  • News
  • Widgets
  • user-avatar
    Anmelden

    Stündliche Wetter Rio Piedras

    Heute, 20 April, Samstag

    Zeit Temperatur Niederschläge Wind Luftdruck Luftfeuchtigkeit
    00:00 +25°C° 0 mm 5 m/S 759 mmHg 83%
    01:00 +25°C° 0 mm 5 m/S 759 mmHg 83%
    02:00 +25°C° 0 mm 3 m/S 758 mmHg 85%
    03:00 +25°C° 0 mm 3 m/S 758 mmHg 85%
    04:00 +25°C° 0 mm 4 m/S 758 mmHg 86%
    05:00 +25°C° 0 mm 4 m/S 759 mmHg 86%
    06:00 +26°C° 0.1 mm 4 m/S 759 mmHg 81%
    07:00 +26°C° 0.1 mm 4 m/S 759 mmHg 77%
    08:00 +28°C° 0 mm 4 m/S 760 mmHg 72%
    09:00 +29°C° 0 mm 5 m/S 760 mmHg 66%
    10:00 +30°C° 0 mm 5 m/S 760 mmHg 61%
    11:00 +32°C° 0 mm 6 m/S 760 mmHg 55%
    12:00 +32°C° 0 mm 6 m/S 760 mmHg 54%
    13:00 +32°C° 0 mm 6 m/S 760 mmHg 54%
    14:00 +33°C° 0 mm 6 m/S 759 mmHg 53%
    15:00 +32°C° 0 mm 6 m/S 759 mmHg 57%
    16:00 +30°C° 0 mm 6 m/S 759 mmHg 61%
    17:00 +29°C° 0 mm 6 m/S 758 mmHg 65%
    18:00 +28°C° 0 mm 5 m/S 759 mmHg 70%
    19:00 +27°C° 0 mm 5 m/S 759 mmHg 76%
    20:00 +26°C° 0 mm 4 m/S 759 mmHg 82%
    21:00 +25°C° 0.1 mm 4 m/S 759 mmHg 84%
    22:00 +25°C° 0.1 mm 4 m/S 759 mmHg 85%
    23:00 +25°C° 0.1 mm 4 m/S 760 mmHg 86%

    Morgen, 21 April, Sonntag

    Zeit Temperatur Niederschläge Wind Luftdruck Luftfeuchtigkeit
    00:00 +25°C° 0.1 mm 4 m/S 759 mmHg 86%
    01:00 +25°C° 0.1 mm 4 m/S 759 mmHg 87%
    02:00 +25°C° 0.1 mm 4 m/S 759 mmHg 87%
    03:00 +25°C° 0.1 mm 4 m/S 758 mmHg 87%
    04:00 +25°C° 0.1 mm 4 m/S 758 mmHg 87%
    05:00 +25°C° 0.1 mm 4 m/S 758 mmHg 88%
    06:00 +26°C° 0.1 mm 4 m/S 758 mmHg 84%
    07:00 +26°C° 0.1 mm 4 m/S 759 mmHg 80%
    08:00 +27°C° 0.1 mm 5 m/S 759 mmHg 77%
    09:00 +28°C° 0.2 mm 5 m/S 759 mmHg 72%
    10:00 +29°C° 0.2 mm 5 m/S 759 mmHg 68%
    11:00 +30°C° 0.2 mm 6 m/S 759 mmHg 64%
    12:00 +30°C° 0.3 mm 6 m/S 759 mmHg 64%
    13:00 +30°C° 0.3 mm 6 m/S 759 mmHg 64%
    14:00 +30°C° 0.3 mm 6 m/S 758 mmHg 64%
    15:00 +30°C° 0.3 mm 5 m/S 758 mmHg 66%
    16:00 +29°C° 0.3 mm 5 m/S 758 mmHg 68%
    17:00 +29°C° 0.3 mm 5 m/S 757 mmHg 70%
    18:00 +28°C° 0 mm 4 m/S 757 mmHg 75%
    19:00 +27°C° 0 mm 4 m/S 758 mmHg 80%
    20:00 +26°C° 0 mm 4 m/S 758 mmHg 84%
    21:00 +26°C° 0 mm 4 m/S 758 mmHg 85%
    22:00 +26°C° 0 mm 4 m/S 758 mmHg 86%
    23:00 +25°C° 0 mm 4 m/S 759 mmHg 86%

    übermorgen, 22 April, Montag

    Zeit Temperatur Niederschläge Wind Luftdruck Luftfeuchtigkeit
    00:00 +25°C° 0.1 mm 3 m/S 758 mmHg 87%
    01:00 +25°C° 0.1 mm 3 m/S 758 mmHg 87%
    02:00 +25°C° 0.1 mm 3 m/S 757 mmHg 88%
    03:00 +25°C° 0.1 mm 3 m/S 757 mmHg 88%
    04:00 +25°C° 0.1 mm 3 m/S 757 mmHg 88%
    05:00 +25°C° 0.1 mm 3 m/S 757 mmHg 89%
    06:00 +25°C° 0.2 mm 3 m/S 757 mmHg 86%
    07:00 +26°C° 0.2 mm 4 m/S 757 mmHg 82%
    08:00 +27°C° 0.2 mm 4 m/S 758 mmHg 79%
    09:00 +28°C° 0.4 mm 5 m/S 758 mmHg 77%
    10:00 +28°C° 0.4 mm 5 m/S 758 mmHg 74%
    11:00 +29°C° 0.4 mm 6 m/S 758 mmHg 72%
    12:00 +29°C° 0.1 mm 5 m/S 758 mmHg 68%
    13:00 +30°C° 0.1 mm 5 m/S 757 mmHg 64%
    14:00 +30°C° 0.1 mm 5 m/S 756 mmHg 61%
    15:00 +30°C° 0 mm 5 m/S 756 mmHg 62%
    16:00 +29°C° 0 mm 5 m/S 756 mmHg 62%
    17:00 +29°C° 0 mm 4 m/S 755 mmHg 63%
    18:00 +27°C° 0 mm 4 m/S 755 mmHg 68%
    19:00 +26°C° 0 mm 3 m/S 756 mmHg 73%
    20:00 +25°C° 0 mm 3 m/S 756 mmHg 78%
    21:00 +25°C° 0 mm 3 m/S 756 mmHg 79%
    22:00 +24°C° 0 mm 2 m/S 757 mmHg 79%
    23:00 +24°C° 0 mm 2 m/S 757 mmHg 80%

    23 April, Dienstag

    Zeit Temperatur Niederschläge Wind Luftdruck Luftfeuchtigkeit
    00:00 +24°C° 0 mm 2 m/S 757 mmHg 81%
    01:00 +24°C° 0 mm 2 m/S 756 mmHg 81%
    02:00 +23°C° 0 mm 2 m/S 756 mmHg 82%
    03:00 +23°C° 0 mm 2 m/S 756 mmHg 83%
    04:00 +23°C° 0 mm 2 m/S 756 mmHg 83%
    05:00 +23°C° 0 mm 2 m/S 755 mmHg 83%
    06:00 +24°C° 0 mm 2 m/S 756 mmHg 78%
    07:00 +26°C° 0 mm 2 m/S 756 mmHg 73%
    08:00 +27°C° 0 mm 2 m/S 757 mmHg 68%
    09:00 +28°C° 0 mm 3 m/S 757 mmHg 64%
    10:00 +29°C° 0 mm 3 m/S 757 mmHg 60%
    11:00 +30°C° 0 mm 3 m/S 757 mmHg 56%
    12:00 +30°C° 0 mm 4 m/S 757 mmHg 57%
    13:00 +30°C° 0 mm 4 m/S 756 mmHg 58%
    14:00 +30°C° 0 mm 4 m/S 756 mmHg 59%
    15:00 +29°C° 0.1 mm 4 m/S 755 mmHg 62%
    16:00 +29°C° 0.1 mm 4 m/S 755 mmHg 66%
    17:00 +28°C° 0.1 mm 4 m/S 755 mmHg 70%
    18:00 +27°C° 0.1 mm 4 m/S 755 mmHg 73%
    19:00 +26°C° 0.1 mm 3 m/S 756 mmHg 77%
    20:00 +26°C° 0.1 mm 3 m/S 756 mmHg 81%
    21:00 +25°C° 0 mm 3 m/S 756 mmHg 82%
    22:00 +25°C° 0 mm 2 m/S 756 mmHg 82%
    23:00 +25°C° 0 mm 2 m/S 757 mmHg 83%

    24 April, Mittwoch

    Zeit Temperatur Niederschläge Wind Luftdruck Luftfeuchtigkeit
    00:00 +25°C° 0 mm 2 m/S 756 mmHg 83%
    01:00 +24°C° 0 mm 1 m/S 756 mmHg 84%
    02:00 +24°C° 0 mm 1 m/S 755 mmHg 85%
    03:00 +24°C° 0 mm 1 m/S 755 mmHg 85%
    04:00 +24°C° 0 mm 1 m/S 755 mmHg 86%
    05:00 +22°C° 0 mm 0 m/S 755 mmHg 86%
    06:00 +25°C° 0 mm 1 m/S 756 mmHg 82%
    07:00 +26°C° 0 mm 1 m/S 756 mmHg 77%
    08:00 +27°C° 0 mm 1 m/S 757 mmHg 72%
    09:00 +28°C° 0 mm 1 m/S 757 mmHg 66%
    10:00 +29°C° 0 mm 2 m/S 757 mmHg 60%
    11:00 +30°C° 0 mm 3 m/S 757 mmHg 55%
    12:00 +30°C° 0 mm 3 m/S 757 mmHg 55%
    13:00 +30°C° 0 mm 3 m/S 757 mmHg 56%
    14:00 +30°C° 0 mm 3 m/S 756 mmHg 57%
    15:00 +30°C° 0.1 mm 3 m/S 756 mmHg 60%
    16:00 +29°C° 0.1 mm 3 m/S 756 mmHg 63%
    17:00 +29°C° 0.1 mm 3 m/S 756 mmHg 66%
    18:00 +28°C° 0 mm 3 m/S 756 mmHg 70%
    19:00 +27°C° 0 mm 2 m/S 757 mmHg 74%
    20:00 +26°C° 0 mm 2 m/S 757 mmHg 79%
    21:00 +25°C° 0 mm 2 m/S 757 mmHg 80%
    22:00 +25°C° 0 mm 2 m/S 757 mmHg 81%
    23:00 +25°C° 0 mm 1 m/S 758 mmHg 82%

    25 April, Donnerstag

    Zeit Temperatur Niederschläge Wind Luftdruck Luftfeuchtigkeit
    00:00 +24°C° 0 mm 1 m/S 757 mmHg 83%
    01:00 +24°C° 0 mm 1 m/S 757 mmHg 84%
    02:00 +24°C° 0 mm 1 m/S 756 mmHg 85%
    03:00 +24°C° 0 mm 1 m/S 756 mmHg 85%
    04:00 +24°C° 0 mm 1 m/S 756 mmHg 86%
    05:00 +23°C° 0 mm 1 m/S 756 mmHg 86%
    06:00 +25°C° 0 mm 1 m/S 757 mmHg 82%
    07:00 +26°C° 0 mm 1 m/S 757 mmHg 77%
    08:00 +27°C° 0 mm 2 m/S 758 mmHg 72%
    09:00 +28°C° 0 mm 2 m/S 758 mmHg 67%
    10:00 +29°C° 0 mm 2 m/S 758 mmHg 63%
    11:00 +30°C° 0 mm 3 m/S 758 mmHg 59%
    12:00 +30°C° 0 mm 3 m/S 758 mmHg 58%
    13:00 +31°C° 0 mm 3 m/S 758 mmHg 57%
    14:00 +32°C° 0 mm 4 m/S 757 mmHg 56%
    15:00 +32°C° 0 mm 4 m/S 757 mmHg 59%
    16:00 +30°C° 0 mm 4 m/S 757 mmHg 61%
    17:00 +30°C° 0 mm 4 m/S 757 mmHg 64%
    18:00 +28°C° 0 mm 4 m/S 757 mmHg 70%
    19:00 +27°C° 0 mm 4 m/S 758 mmHg 76%
    20:00 +26°C° 0 mm 3 m/S 758 mmHg 83%
    21:00 +26°C° 0 mm 3 m/S 758 mmHg 84%
    22:00 +25°C° 0 mm 3 m/S 758 mmHg 85%
    23:00 +25°C° 0 mm 3 m/S 759 mmHg 87%
    Mehr zeigen